軌道要素
Epoch 2011 Feb. 8.0 TT = JDT 2455600.5
T 2011 Jan. 28.90273 TT MPC
q 2.5204956 (2000.0) P Q
z +0.0026533 Peri. 127.39168 +0.65144202 +0.68689699
+/-0.0000003 Node 160.27724 -0.28549181 -0.17149596
e 0.9933123 Incl. 107.31641 +0.70293507 -0.70623060
From 1586 observations 2009 Dec. 17-2011 Dec. 23, mean residual 0".5.
|